When you browse on this site, cookies collect data to enhance your experience and personalize the content and advertising you see.
Visit our Privacy Policy to learn more. By continuing to use the site, you agree to this use of cookies and data.
  • In Austria
  • List of Countries
  • For 7 days
  • Water Temperature
  • Weather Map
  • News
  • Weather Widgets
  • user-avatar
    Login

    Hourly Weather Dobrich

    Today, 24 October, Thursday

    Time Temperature Precipitation Wind Pressure Humidity
    00:00 +14°C° 0 mm 1 mps 743 mmHg 78%
    01:00 +13°C° 0 mm 1 mps 743 mmHg 78%
    02:00 +13°C° 0 mm 1 mps 743 mmHg 78%
    03:00 +13°C° 0 mm 1 mps 743 mmHg 77%
    04:00 +13°C° 0 mm 1 mps 743 mmHg 77%
    05:00 +11°C° 0 mm 0 mps 743 mmHg 76%
    06:00 +12°C° 0 mm 0 mps 743 mmHg 72%
    07:00 +13°C° 0 mm 0 mps 743 mmHg 68%
    08:00 +15°C° 0 mm 1 mps 743 mmHg 64%
    09:00 +18°C° 0 mm 1 mps 743 mmHg 57%
    10:00 +20°C° 0 mm 1 mps 743 mmHg 49%
    11:00 +20°C° 0 mm 2 mps 743 mmHg 41%
    12:00 +21°C° 0 mm 2 mps 743 mmHg 40%
    13:00 +23°C° 0 mm 2 mps 743 mmHg 38%
    14:00 +23°C° 0 mm 2 mps 742 mmHg 37%
    15:00 +21°C° 0 mm 2 mps 742 mmHg 44%
    16:00 +19°C° 0 mm 2 mps 741 mmHg 50%
    17:00 +18°C° 0 mm 2 mps 741 mmHg 57%
    18:00 +17°C° 0 mm 2 mps 741 mmHg 63%
    19:00 +16°C° 0 mm 2 mps 741 mmHg 68%
    20:00 +15°C° 0 mm 2 mps 741 mmHg 74%
    21:00 +14°C° 0 mm 2 mps 741 mmHg 77%
    22:00 +14°C° 0 mm 2 mps 741 mmHg 79%
    23:00 +13°C° 0 mm 2 mps 741 mmHg 81%

    Tomorrow, 25 October, Friday

    Time Temperature Precipitation Wind Pressure Humidity
    00:00 +13°C° 0 mm 1 mps 741 mmHg 82%
    01:00 +13°C° 0 mm 1 mps 741 mmHg 83%
    02:00 +13°C° 0 mm 1 mps 741 mmHg 85%
    03:00 +13°C° 0 mm 1 mps 741 mmHg 83%
    04:00 +12°C° 0 mm 1 mps 741 mmHg 82%
    05:00 +12°C° 0 mm 1 mps 741 mmHg 80%
    06:00 +13°C° 0 mm 1 mps 741 mmHg 77%
    07:00 +14°C° 0 mm 1 mps 741 mmHg 74%
    08:00 +14°C° 0 mm 1 mps 742 mmHg 71%
    09:00 +16°C° 0 mm 2 mps 742 mmHg 62%
    10:00 +18°C° 0 mm 2 mps 742 mmHg 53%
    11:00 +20°C° 0 mm 2 mps 742 mmHg 45%
    12:00 +21°C° 0 mm 2 mps 742 mmHg 42%
    13:00 +23°C° 0 mm 2 mps 742 mmHg 40%
    14:00 +23°C° 0 mm 2 mps 742 mmHg 37%
    15:00 +21°C° 0 mm 2 mps 742 mmHg 43%
    16:00 +19°C° 0 mm 2 mps 742 mmHg 49%
    17:00 +18°C° 0 mm 2 mps 741 mmHg 55%
    18:00 +17°C° 0 mm 2 mps 742 mmHg 60%
    19:00 +16°C° 0 mm 1 mps 742 mmHg 66%
    20:00 +15°C° 0 mm 1 mps 742 mmHg 71%
    21:00 +15°C° 0 mm 1 mps 742 mmHg 71%
    22:00 +14°C° 0 mm 1 mps 743 mmHg 72%
    23:00 +14°C° 0 mm 1 mps 743 mmHg 73%

    Day after tomorrow, 26 October, Saturday

    Time Temperature Precipitation Wind Pressure Humidity
    00:00 +14°C° 0 mm 1 mps 743 mmHg 72%
    01:00 +12°C° 0 mm 0 mps 743 mmHg 71%
    02:00 +12°C° 0 mm 0 mps 743 mmHg 71%
    03:00 +12°C° 0 mm 0 mps 743 mmHg 70%
    04:00 +12°C° 0 mm 0 mps 743 mmHg 70%
    05:00 +12°C° 0 mm 0 mps 743 mmHg 69%
    06:00 +13°C° 0 mm 1 mps 744 mmHg 66%
    07:00 +14°C° 0 mm 1 mps 744 mmHg 63%
    08:00 +15°C° 0 mm 1 mps 744 mmHg 60%
    09:00 +18°C° 0 mm 1 mps 745 mmHg 53%
    10:00 +20°C° 0 mm 1 mps 745 mmHg 45%
    11:00 +22°C° 0 mm 1 mps 745 mmHg 38%
    12:00 +22°C° 0 mm 1 mps 745 mmHg 36%
    13:00 +23°C° 0 mm 1 mps 745 mmHg 34%
    14:00 +24°C° 0 mm 2 mps 744 mmHg 32%
    15:00 +22°C° 0 mm 1 mps 744 mmHg 37%
    16:00 +21°C° 0 mm 1 mps 744 mmHg 43%
    17:00 +20°C° 0 mm 1 mps 743 mmHg 48%
    18:00 +19°C° 0 mm 1 mps 743 mmHg 51%
    19:00 +18°C° 0 mm 1 mps 744 mmHg 55%
    20:00 +15°C° 0 mm 0 mps 744 mmHg 58%
    21:00 +14°C° 0 mm 0 mps 744 mmHg 59%
    22:00 +15°C° 0 mm 1 mps 744 mmHg 59%
    23:00 +15°C° 0 mm 1 mps 744 mmHg 60%

    27 October, Sunday

    Time Temperature Precipitation Wind Pressure Humidity
    00:00 +14°C° 0 mm 1 mps 744 mmHg 60%
    01:00 +14°C° 0 mm 1 mps 743 mmHg 61%
    02:00 +14°C° 0 mm 1 mps 743 mmHg 61%
    03:00 +14°C° 0 mm 1 mps 743 mmHg 62%
    04:00 +13°C° 0 mm 1 mps 743 mmHg 62%
    05:00 +13°C° 0 mm 1 mps 743 mmHg 63%
    06:00 +14°C° 0 mm 1 mps 743 mmHg 61%
    07:00 +14°C° 0 mm 1 mps 743 mmHg 59%
    08:00 +15°C° 0 mm 1 mps 743 mmHg 57%
    09:00 +18°C° 0 mm 1 mps 744 mmHg 51%
    10:00 +20°C° 0 mm 1 mps 744 mmHg 45%
    11:00 +20°C° 0 mm 0 mps 744 mmHg 39%
    12:00 +23°C° 0 mm 1 mps 743 mmHg 37%
    13:00 +23°C° 0 mm 1 mps 743 mmHg 36%
    14:00 +24°C° 0 mm 1 mps 743 mmHg 34%
    15:00 +22°C° 0 mm 1 mps 742 mmHg 39%
    16:00 +21°C° 0 mm 1 mps 742 mmHg 44%
    17:00 +18°C° 0 mm 2 mps 742 mmHg 49%
    18:00 +17°C° 0 mm 2 mps 741 mmHg 54%
    19:00 +16°C° 0 mm 2 mps 741 mmHg 59%
    20:00 +15°C° 0 mm 2 mps 741 mmHg 63%
    21:00 +15°C° 0 mm 2 mps 741 mmHg 64%
    22:00 +15°C° 0 mm 2 mps 741 mmHg 66%
    23:00 +14°C° 0 mm 2 mps 741 mmHg 67%

    28 October, Monday

    Time Temperature Precipitation Wind Pressure Humidity
    00:00 +14°C° 0 mm 2 mps 741 mmHg 68%
    01:00 +14°C° 0 mm 2 mps 740 mmHg 69%
    02:00 +13°C° 0 mm 2 mps 740 mmHg 69%
    03:00 +13°C° 0 mm 2 mps 740 mmHg 70%
    04:00 +13°C° 0 mm 2 mps 740 mmHg 70%
    05:00 +13°C° 0 mm 2 mps 739 mmHg 70%
    06:00 +13°C° 0 mm 2 mps 739 mmHg 68%
    07:00 +14°C° 0 mm 2 mps 739 mmHg 66%
    08:00 +14°C° 0 mm 2 mps 739 mmHg 64%
    09:00 +16°C° 0 mm 2 mps 739 mmHg 56%
    10:00 +18°C° 0 mm 3 mps 739 mmHg 49%
    11:00 +20°C° 0 mm 3 mps 739 mmHg 41%
    12:00 +21°C° 0 mm 3 mps 739 mmHg 41%
    13:00 +21°C° 0 mm 3 mps 738 mmHg 41%
    14:00 +21°C° 0 mm 3 mps 738 mmHg 41%
    15:00 +20°C° 0 mm 3 mps 738 mmHg 49%
    16:00 +18°C° 0 mm 3 mps 737 mmHg 57%
    17:00 +17°C° 0 mm 3 mps 737 mmHg 65%
    18:00 +16°C° 0 mm 3 mps 737 mmHg 71%
    19:00 +15°C° 0 mm 2 mps 737 mmHg 76%
    20:00 +14°C° 0 mm 2 mps 737 mmHg 81%
    21:00 +14°C° 0 mm 2 mps 737 mmHg 83%
    22:00 +13°C° 0 mm 2 mps 737 mmHg 85%
    23:00 +13°C° 0 mm 2 mps 737 mmHg 87%

    29 October, Tuesday

    Time Temperature Precipitation Wind Pressure Humidity
    00:00 +13°C° 0 mm 2 mps 737 mmHg 87%
    01:00 +13°C° 0 mm 2 mps 737 mmHg 88%
    02:00 +12°C° 0 mm 2 mps 737 mmHg 88%
    03:00 +12°C° 0 mm 2 mps 737 mmHg 88%
    04:00 +12°C° 0 mm 1 mps 737 mmHg 88%
    05:00 +12°C° 0 mm 1 mps 737 mmHg 87%
    06:00 +13°C° 0 mm 1 mps 737 mmHg 85%
    07:00 +13°C° 0 mm 1 mps 737 mmHg 83%
    08:00 +14°C° 0 mm 1 mps 737 mmHg 81%
    09:00 +15°C° 0 mm 1 mps 738 mmHg 72%
    10:00 +17°C° 0 mm 2 mps 738 mmHg 64%
    11:00 +19°C° 0 mm 2 mps 738 mmHg 55%
    12:00 +20°C° 0 mm 2 mps 738 mmHg 51%
    13:00 +20°C° 0 mm 2 mps 738 mmHg 46%
    14:00 +22°C° 0 mm 1 mps 737 mmHg 42%
    15:00 +21°C° 0 mm 1 mps 737 mmHg 48%
    16:00 +18°C° 0 mm 2 mps 737 mmHg 54%
    17:00 +17°C° 0 mm 2 mps 736 mmHg 59%
    18:00 +16°C° 0 mm 2 mps 737 mmHg 64%
    19:00 +15°C° 0 mm 2 mps 737 mmHg 68%
    20:00 +15°C° 0 mm 2 mps 737 mmHg 73%
    21:00 +14°C° 0 mm 1 mps 737 mmHg 72%
    22:00 +14°C° 0 mm 1 mps 737 mmHg 72%
    23:00 +14°C° 0 mm 1 mps 737 mmHg 71%

    30 October, Wednesday

    Time Temperature Precipitation Wind Pressure Humidity
    00:00 +14°C° 0 mm 1 mps 737 mmHg 71%
    01:00 +13°C° 0 mm 1 mps 737 mmHg 70%
    02:00 +13°C° 0 mm 1 mps 737 mmHg 69%
    03:00 +13°C° 0 mm 1 mps 737 mmHg 67%
    04:00 +13°C° 0 mm 1 mps 737 mmHg 66%
    05:00 +13°C° 0 mm 1 mps 736 mmHg 64%
    06:00 +13°C° 0 mm 1 mps 737 mmHg 60%
    07:00 +14°C° 0 mm 1 mps 737 mmHg 56%
    08:00 +14°C° 0 mm 1 mps 737 mmHg 53%
    09:00 +16°C° 0 mm 1 mps 737 mmHg 46%
    10:00 +19°C° 0 mm 1 mps 737 mmHg 40%
    11:00 +19°C° 0 mm 0 mps 737 mmHg 33%
    12:00 +22°C° 0 mm 1 mps 737 mmHg 32%
    13:00 +22°C° 0 mm 1 mps 737 mmHg 30%
    14:00 +23°C° 0 mm 1 mps 737 mmHg 28%
    15:00 +22°C° 0 mm 1 mps 736 mmHg 32%
    16:00 +20°C° 0 mm 1 mps 736 mmHg 37%
    17:00 +19°C° 0 mm 1 mps 736 mmHg 41%
    18:00 +18°C° 0 mm 1 mps 736 mmHg 43%
    19:00 +16°C° 0 mm 2 mps 736 mmHg 46%
    20:00 +15°C° 0 mm 2 mps 736 mmHg 48%
    21:00 +15°C° 0 mm 2 mps 736 mmHg 50%
    22:00 +15°C° 0 mm 2 mps 736 mmHg 53%
    23:00 +14°C° 0 mm 2 mps 736 mmHg 55%
    Show more